DW5686 Weather Reports


time (UTC)temp
C
wind
direction
speed
KPH
gust
KPH
rain 1hr
cm
rain 24hr
cm
rain mn
cm
humidity
%
barometer
mb
20260906072503 22 0 0.0 3.2 0.00 0.00 0.00 91 1010.7
20260906072003 22 207 1.6 3.2 0.00 0.00 0.00 91 1010.7
20260906071502 22 207 3.2 3.2 0.00 0.00 0.00 91 1010.7
20260906071002 21 207 1.6 3.2 0.00 0.00 0.00 91 1010.7
20260906070502 21 0 0.0 1.6 0.00 0.00 0.00 91 1010.7
20260906070004 21 0 0.0 3.2 0.00 0.00 0.00 91 1010.7
20260906065502 21 207 0.0 3.2 0.00 0.00 0.00 91 1010.7
20260906065002 22 0 0.0 0.0 0.00 0.00 0.00 91 1010.8
20260906064523 22 0 0.0 0.0 0.00 0.00 0.00 91 1010.8
20260906064002 22 0 0.0 1.6 0.00 0.00 0.00 91 1010.9
20260906063524 22 207 0.0 3.2 0.00 0.00 0.00 91 1011.0
20260906063024 22 207 0.0 3.2 0.00 0.00 0.00 91 1011.1
20260906062502 22 207 0.0 3.2 0.00 0.00 0.00 89 1011.2
20260906062024 22 0 0.0 1.6 0.00 0.00 0.00 89 1011.2
20260906061524 22 207 0.0 4.8 0.00 0.00 0.00 89 1011.4
20260906061002 22 207 3.2 6.4 0.00 0.00 0.00 91 1011.5
20260906060503 22 202 3.2 6.4 0.00 0.00 0.00 91 1011.6
20260906060002 22 42 1.6 6.4 0.00 0.00 0.00 91 1011.4
20260906055503 22 42 0.0 6.4 0.00 0.00 0.00 91 1011.5
20260906055002 22 185 1.6 3.2 0.00 0.00 0.00 91 1011.6
20260906054524 22 0 0.0 6.4 0.00 0.00 0.00 89 1011.7
20260906054003 22 185 1.6 6.4 0.00 0.00 0.00 89 1011.7
20260906053502 22 185 1.6 3.2 0.00 0.00 0.00 89 1011.9
20260906053002 22 185 0.0 1.6 0.00 0.00 0.00 89 1011.8
20260906052502 22 0 0.0 3.2 0.00 0.00 0.00 89 1011.9
20260906052002 22 0 0.0 3.2 0.00 0.00 0.00 89 1012.1
20260906051523 22 185 1.6 3.2 0.00 0.00 0.00 89 1012.1
20260906051002 22 185 1.6 3.2 0.00 0.00 0.00 89 1012.2
20260906050504 22 0 0.0 3.2 0.00 0.00 0.00 89 1012.2
20260906050003 22 185 0.0 3.2 0.00 0.00 0.00 89 1012.2
20260906045502 22 185 0.0 1.6 0.00 0.00 0.00 89 1012.0
20260906045003 22 0 0.0 0.0 0.00 0.00 0.00 88 1012.0
20260906044502 22 0 0.0 1.6 0.00 0.00 0.00 88 1012.1
20260906044023 22 185 0.0 3.2 0.00 0.00 0.00 88 1012.2
20260906043503 22 185 1.6 4.8 0.00 0.00 0.00 87 1012.3
20260906043002 22 185 0.0 8.0 0.00 0.00 0.00 87 1012.4
20260906042502 22 186 3.2 8.0 0.00 0.00 0.00 87 1012.4
20260906042003 22 225 1.6 3.2 0.00 0.00 0.00 87 1012.5
20260906041503 22 225 3.2 4.8 0.00 0.00 0.00 87 1012.5
20260906041024 22 225 1.6 4.8 0.00 0.00 0.00 87 1012.5
20260906040502 22 227 3.2 4.8 0.00 0.00 0.00 87 1012.4
20260906040024 22 231 1.6 3.2 0.00 0.00 0.00 87 1012.4
20260906035523 22 231 1.6 8.0 0.00 0.00 0.00 87 1012.4
20260906035003 22 231 1.6 8.0 0.00 0.00 0.00 87 1012.4
20260906034502 22 231 0.0 3.2 0.00 0.00 0.00 87 1012.6
20260906034024 22 231 0.0 4.8 0.00 0.00 0.00 86 1012.5
20260906033503 22 231 1.6 4.8 0.00 0.00 0.00 86 1012.5
20260906033003 22 231 3.2 3.2 0.00 0.00 0.00 86 1012.6
20260906032502 22 231 0.0 4.8 0.00 0.00 0.00 86 1012.6
20260906032024 22 231 1.6 8.0 0.00 0.00 0.00 86 1012.5
20260906031503 22 231 1.6 8.0 0.00 0.00 0.00 86 1012.6
20260906031002 23 235 1.6 3.2 0.00 0.00 0.00 86 1012.5
20260906030503 23 235 1.6 8.0 0.00 0.00 0.00 84 1012.5
20260906030004 23 235 1.6 11.3 0.00 0.00 0.00 84 1012.5
20260906025503 23 242 3.2 11.3 0.00 0.00 0.00 84 1012.5
20260906025003 23 233 4.8 11.3 0.00 0.00 0.00 84 1012.4
20260906024502 23 241 3.2 8.0 0.00 0.00 0.00 84 1012.2
20260906024025 23 246 3.2 8.0 0.00 0.00 0.00 84 1012.3
20260906023503 23 256 3.2 6.4 0.00 0.00 0.00 84 1012.3
20260906023003 23 257 0.0 3.2 0.00 0.00 0.00 84 1012.2
20260906022502 23 257 0.0 3.2 0.00 0.00 0.00 83 1012.2
20260906022002 23 257 1.6 3.2 0.00 0.00 0.00 82 1012.2
20260906021502 23 257 1.6 3.2 0.00 0.00 0.00 82 1012.2
20260906021003 23 257 1.6 4.8 0.00 0.00 0.00 81 1012.1
20260906020503 23 257 1.6 9.7 0.00 0.00 0.00 81 1012.1
20260906020002 23 167 3.2 9.7 0.00 0.00 0.00 81 1012.2
20260906015502 23 155 3.2 6.4 0.00 0.00 0.00 81 1012.2
20260906015002 23 155 3.2 9.7 0.00 0.00 0.00 81 1012.3
20260906014502 23 172 4.8 11.3 0.00 0.00 0.00 81 1012.2
20260906014003 23 174 4.8 11.3 0.00 0.00 0.00 81 1012.1
20260906013503 23 216 1.6 3.2 0.00 0.00 0.00 81 1012.0
20260906013002 23 216 0.0 1.6 0.00 0.00 0.00 81 1012.0
20260906012502 23 216 0.0 1.6 0.00 0.00 0.00 79 1012.0
20260906012003 23 0 0.0 0.0 0.00 0.00 0.00 79 1011.8
20260906011502 23 0 0.0 3.2 0.00 0.00 0.00 78 1011.9
20260906011003 24 216 0.0 3.2 0.00 0.00 0.00 78 1011.9
20260906010502 24 216 1.6 3.2 0.00 0.00 0.00 78 1011.8
20260906010002 24 216 1.6 3.2 0.00 0.00 0.00 78 1011.6
20260906005502 24 0 0.0 3.2 0.00 0.00 0.00 77 1011.7
20260906005002 24 0 0.0 3.2 0.00 0.00 0.00 77 1011.7
20260906004502 24 216 1.6 3.2 0.00 0.00 0.00 76 1011.8
20260906004003 24 216 1.6 1.6 0.00 0.00 0.00 76 1011.7
20260906003503 25 216 0.0 3.2 0.00 0.00 0.00 75 1011.6
20260906003003 25 216 1.6 3.2 0.00 0.00 0.00 75 1011.6
20260906002503 25 0 0.0 3.2 0.00 0.00 0.00 74 1011.7
20260906002002 25 216 1.6 3.2 0.00 0.00 0.00 74 1011.7
20260906001524 25 216 0.0 4.8 0.00 0.00 0.00 72 1011.5
20260906001003 25 216 1.6 4.8 0.00 0.00 0.00 71 1011.5
20260906000502 25 216 1.6 4.8 0.00 0.00 0.00 72 1011.3
20260906000002 25 216 1.6 3.2 0.00 0.00 0.00 71 1011.2
20260905235524 26 216 1.6 6.4 0.00 0.00 0.00 70 1011.0
20260905235003 26 59 3.2 6.4 0.00 0.00 0.00 69 1011.0
20260905234502 26 32 1.6 4.8 0.00 0.00 0.00 69 1010.9
20260905234002 26 32 1.6 4.8 0.00 0.00 0.00 68 1010.7
20260905233502 26 32 0.0 3.2 0.00 0.00 0.00 67 1010.7
20260905233024 26 32 0.0 6.4 0.00 0.00 0.00 67 1010.5
20260905232503 26 32 0.0 8.0 0.00 0.00 0.00 65 1010.5
20260905232003 26 25 1.6 8.0 0.00 0.00 0.00 64 1010.6
20260905231503 27 43 0.0 3.2 0.00 0.00 0.00 63 1010.7
20260905231003 27 43 0.0 3.2 0.00 0.00 0.00 62 1010.6
20260905230503 27 43 0.0 3.2 0.00 0.00 0.00 62 1010.6
20260905230024 27 43 1.6 8.0 0.00 0.00 0.00 63 1010.7
20260905225502 27 358 3.2 11.3 0.00 0.00 0.00 63 1010.8
20260905225003 27 2 6.4 11.3 0.00 0.00 0.00 62 1010.7
20260905224503 27 202 0.0 3.2 0.00 0.00 0.00 61 1010.6
20260905224002 27 194 1.6 4.8 0.00 0.00 0.00 61 1010.6
20260905223504 27 342 1.6 4.8 0.00 0.00 0.00 60 1010.5
20260905223002 27 27 1.6 4.8 0.00 0.00 0.00 61 1010.5
20260905222502 27 6 1.6 6.4 0.00 0.00 0.00 60 1010.6
20260905222025 27 5 3.2 6.4 0.00 0.00 0.00 60 1010.6
20260905221524 27 37 1.6 3.2 0.00 0.00 0.00 59 1010.7
20260905221003 27 37 0.0 3.2 0.00 0.00 0.00 60 1010.6
20260905220503 27 37 1.6 3.2 0.00 0.00 0.00 60 1010.7
20260905220004 27 37 1.6 6.4 0.00 0.00 0.00 61 1010.7
20260905215503 28 124 1.6 8.0 0.00 0.00 0.00 61 1010.8
20260905215025 28 225 3.2 8.0 0.00 0.00 0.00 62 1010.9
20260905214504 27 240 3.2 6.4 0.00 0.00 0.00 62 1010.8
20260905214002 28 213 3.2 4.8 0.00 0.00 0.00 63 1011.0
20260905213503 27 220 3.2 6.4 0.00 0.00 0.00 65 1010.9
20260905213002 27 237 3.2 6.4 0.00 0.00 0.00 63 1011.0
20260905212503 27 35 3.2 4.8 0.00 0.00 0.00 67 1011.0
20260905212024 27 116 3.2 4.8 0.00 0.00 0.00 69 1011.2
20260905211503 27 168 1.6 3.2 0.00 0.00 0.00 70 1011.4
20260905211002 27 168 1.6 4.8 0.00 0.00 0.00 71 1011.7
20260905210525 26 163 3.2 4.8 0.00 0.00 0.00 71 1011.6
20260905210003 26 330 3.2 4.8 0.00 0.00 0.00 69 1011.7
20260905205503 26 356 0.0 6.4 0.00 0.00 0.00 70 1011.7
20260905205003 26 165 1.6 16.1 0.00 0.00 0.00 71 1011.6
20260905204503 26 314 6.4 16.1 0.00 0.00 0.00 72 1011.4
20260905204003 26 210 1.6 14.5 0.00 0.00 0.00 72 1011.6
20260905203502 27 212 4.8 14.5 0.00 0.00 0.00 71 1011.9
20260905203003 27 203 4.8 11.3 0.00 0.00 0.00 71 1011.5
20260905202503 27 213 4.8 11.3 0.00 0.00 0.00 69 1011.4
20260905202003 28 222 1.6 11.3 0.00 0.00 0.00 67 1011.2
20260905201502 28 208 4.8 11.3 0.00 0.00 0.00 64 1011.2
20260905201004 28 336 3.2 20.9 0.00 0.00 0.00 63 1011.3
20260905200523 28 350 6.4 20.9 0.00 0.00 0.00 62 1011.3
20260905200003 28 36 4.8 19.3 0.00 0.00 0.00 62 1011.7
20260905195503 28 13 9.7 22.5 0.00 0.00 0.00 60 1011.9
20260905195004 28 22 9.7 25.7 0.00 0.00 0.00 59 1012.2
20260905194503 29 23 14.5 25.7 0.00 0.00 0.00 57 1012.1
20260905194003 30 360 4.8 11.3 0.00 0.00 0.00 61 1011.6
20260905193523 30 223 3.2 6.4 0.00 0.00 0.00 61 1011.2
20260905193003 31 293 1.6 11.3 0.00 0.00 0.00 58 1010.6
20260905192504 32 332 4.8 11.3 0.00 0.00 0.00 57 1010.5
20260905192003 32 359 3.2 12.9 0.00 0.00 0.00 52 1010.6
20260905191504 33 217 3.2 12.9 0.00 0.00 0.00 49 1010.5
20260905191024 33 191 1.6 8.0 0.00 0.00 0.00 45 1010.5
20260905190502 34 253 3.2 12.9 0.00 0.00 0.00 45 1010.3
20260905190004 34 1 3.2 17.7 0.00 0.00 0.00 45 1010.2
20260905185503 35 18 11.3 17.7 0.00 0.00 0.00 44 1010.6
20260905185025 35 11 8.0 16.1 0.00 0.00 0.00 44 1010.7
20260905184503 35 335 3.2 17.7 0.00 0.00 0.00 44 1011.0
20260905184004 35 320 4.8 17.7 0.00 0.00 0.00 43 1011.0
20260905183504 35 347 4.8 16.1 0.00 0.00 0.00 42 1010.8
20260905183003 35 205 4.8 16.1 0.00 0.00 0.00 43 1010.9
20260905182503 35 148 1.6 11.3 0.00 0.00 0.00 44 1011.3
20260905182003 35 344 3.2 11.3 0.00 0.00 0.00 44 1011.2
20260905181523 35 360 4.8 17.7 0.00 0.00 0.00 42 1011.3
20260905181003 36 312 4.8 17.7 0.00 0.00 0.00 44 1011.4
20260905180503 36 249 3.2 11.3 0.00 0.00 0.00 44 1011.4
20260905180004 35 307 1.6 19.3 0.00 0.00 0.00 45 1011.5
20260905175503 35 229 3.2 19.3 0.00 0.00 0.00 44 1011.8
20260905175003 35 259 4.8 11.3 0.00 0.00 0.00 43 1011.9
20260905174525 35 8 3.2 9.7 0.00 0.00 0.00 45 1011.9
20260905174003 35 216 3.2 9.7 0.00 0.00 0.00 44 1012.0
20260905173524 35 353 3.2 11.3 0.00 0.00 0.00 44 1012.1
20260905173004 35 346 3.2 14.5 0.00 0.00 0.00 45 1012.3
20260905172503 35 27 9.7 14.5 0.00 0.00 0.00 44 1012.4
20260905172004 35 30 3.2 14.5 0.00 0.00 0.00 48 1012.4
20260905171504 35 14 9.7 14.5 0.00 0.00 0.00 48 1012.6
20260905171004 34 17 1.6 11.3 0.00 0.00 0.00 49 1012.7
20260905170504 34 181 3.2 12.9 0.00 0.00 0.00 49 1012.7
20260905170003 34 184 4.8 12.9 0.00 0.00 0.00 49 1012.7
20260905165503 35 193 8.0 11.3 0.00 0.00 0.00 47 1012.8
20260905165003 35 205 8.0 11.3 0.00 0.00 0.00 48 1012.9
20260905164503 35 230 3.2 11.3 0.00 0.00 0.00 47 1013.1
20260905164003 35 7 6.4 11.3 0.00 0.00 0.00 48 1013.1
20260905163524 35 219 1.6 6.4 0.00 0.00 0.00 51 1013.1
20260905163004 35 189 3.2 11.3 0.00 0.00 0.00 50 1013.2
20260905162503 34 127 3.2 11.3 0.00 0.00 0.00 50 1013.3
20260905162025 34 26 3.2 8.0 0.00 0.00 0.00 55 1013.3
20260905161503 34 249 3.2 9.7 0.00 0.00 0.00 53 1013.3
20260905161003 33 208 3.2 9.7 0.00 0.00 0.00 53 1013.5
20260905160503 33 197 6.4 11.3 0.00 0.00 0.00 56 1013.5
20260905160004 33 230 4.8 11.3 0.00 0.00 0.00 55 1013.4
20260905155524 33 179 4.8 11.3 0.00 0.00 0.00 58 1013.5
20260905155003 33 199 6.4 9.7 0.00 0.00 0.00 57 1013.6
20260905154525 32 214 3.2 9.7 0.00 0.00 0.00 58 1013.6
20260905154003 33 201 4.8 9.7 0.00 0.00 0.00 58 1013.5
20260905153504 33 222 3.2 8.0 0.00 0.00 0.00 60 1013.5
20260905153003 32 203 4.8 9.7 0.00 0.00 0.00 58 1013.5
20260905152503 32 214 3.2 9.7 0.00 0.00 0.00 61 1013.6
20260905152003 32 168 3.2 9.7 0.00 0.00 0.00 62 1013.6
20260905151503 32 255 3.2 9.7 0.00 0.00 0.00 61 1013.6
20260905151003 32 246 3.2 9.7 0.00 0.00 0.00 61 1013.5
20260905150504 32 218 3.2 11.3 0.00 0.00 0.00 61 1013.6
20260905150004 32 206 4.8 11.3 0.00 0.00 0.00 63 1013.5
20260905145524 31 221 1.6 9.7 0.00 0.00 0.00 64 1013.5
20260905145024 31 216 4.8 9.7 0.00 0.00 0.00 63 1013.6
20260905144504 31 236 3.2 8.0 0.00 0.00 0.00 63 1013.6
20260905144025 31 198 3.2 8.0 0.00 0.00 0.00 64 1013.7
20260905143503 30 197 3.2 9.7 0.00 0.00 0.00 65 1013.6
20260905143003 30 220 3.2 9.7 0.00 0.00 0.00 68 1013.7
20260905142503 30 185 3.2 8.0 0.00 0.00 0.00 68 1013.7
20260905142004 30 210 3.2 11.3 0.00 0.00 0.00 69 1013.6
20260905141504 29 184 3.2 11.3 0.00 0.00 0.00 70 1013.7
20260905141003 29 214 3.2 11.3 0.00 0.00 0.00 70 1013.7
20260905140504 29 192 6.4 11.3 0.00 0.00 0.00 71 1013.7
20260905140003 29 228 3.2 9.7 0.00 0.00 0.00 70 1013.7
20260905135525 28 204 4.8 9.7 0.00 0.00 0.00 71 1013.6
20260905135004 28 152 3.2 9.7 0.00 0.00 0.00 74 1013.7
20260905134504 28 156 6.4 11.3 0.00 0.00 0.00 74 1013.7
20260905134004 28 177 8.0 11.3 0.00 0.00 0.00 75 1013.7
20260905133504 27 169 4.8 11.3 0.00 0.00 0.00 75 1013.8
20260905133004 27 203 3.2 11.3 0.00 0.00 0.00 77 1013.8
20260905132504 27 247 3.2 8.0 0.00 0.00 0.00 76 1013.8
20260905132024 27 241 4.8 11.3 0.00 0.00 0.00 77 1013.9
20260905131525 27 213 6.4 11.3 0.00 0.00 0.00 76 1014.0
20260905131004 27 238 3.2 8.0 0.00 0.00 0.00 77 1014.0
20260905130525 26 150 3.2 9.7 0.00 0.00 0.00 78 1014.0
20260905130003 26 186 4.8 9.7 0.00 0.00 0.00 79 1014.1
20260905125503 26 198 3.2 11.3 0.00 0.00 0.00 81 1014.0
20260905125003 25 211 3.2 11.3 0.00 0.00 0.00 81 1014.0
20260905124504 25 223 4.8 9.7 0.00 0.00 0.00 82 1014.1
20260905124003 25 191 3.2 9.7 0.00 0.00 0.00 83 1014.0
20260905123503 25 207 4.8 11.3 0.00 0.00 0.00 83 1014.0
20260905123003 25 211 4.8 11.3 0.00 0.00 0.00 83 1014.0
20260905122504 25 196 4.8 11.3 0.00 0.00 0.00 84 1013.9
20260905122003 25 230 4.8 9.7 0.00 0.00 0.00 84 1014.0
20260905121503 24 200 3.2 9.7 0.00 0.00 0.00 86 1013.9
20260905121003 24 192 3.2 9.7 0.00 0.00 0.00 86 1014.0
20260905120503 24 216 3.2 8.0 0.00 0.00 0.00 86 1014.0
20260905120004 24 231 3.2 9.7 0.00 0.00 0.00 86 1014.0
20260905115504 23 205 4.8 9.7 0.00 0.00 0.00 87 1014.0
20260905115004 23 207 3.2 6.4 0.00 0.00 0.00 87 1013.9
20260905114504 23 207 1.6 6.4 0.00 0.00 0.00 88 1013.9
20260905114004 23 207 3.2 6.4 0.00 0.00 0.00 88 1013.8
20260905113504 23 191 3.2 4.8 0.00 0.00 0.00 89 1013.7
20260905113025 23 172 3.2 4.8 0.00 0.00 0.00 89 1013.7
20260905112503 23 171 1.6 3.2 0.00 0.00 0.00 89 1013.6
20260905112004 23 171 1.6 3.2 0.00 0.00 0.00 89 1013.6
20260905111504 23 171 1.6 3.2 0.00 0.00 0.00 89 1013.5
20260905111024 23 171 0.0 3.2 0.00 0.00 0.00 89 1013.3
20260905110503 23 171 1.6 3.2 0.00 0.00 0.00 88 1013.1
20260905110003 23 171 1.6 3.2 0.00 0.00 0.00 88 1013.0
20260905105503 23 171 1.6 3.2 0.00 0.00 0.00 88 1013.0
20260905105004 23 171 1.6 4.8 0.00 0.00 0.00 88 1012.9
20260905104504 23 171 1.6 6.4 0.00 0.00 0.00 88 1012.8
20260905104004 23 187 3.2 6.4 0.00 0.00 0.00 88 1012.7
20260905103503 23 207 1.6 3.2 0.00 0.00 0.00 88 1012.7
20260905103004 23 207 1.6 3.2 0.00 0.00 0.00 88 1012.6
20260905102503 23 207 0.0 3.2 0.00 0.00 0.00 88 1012.6
20260905102003 23 207 0.0 3.2 0.00 0.00 0.00 88 1012.7
20260905101503 23 0 0.0 0.0 0.00 0.00 0.00 88 1012.6
20260905101003 23 0 0.0 3.2 0.00 0.00 0.00 88 1012.5
20260905100503 23 0 0.0 3.2 0.00 0.00 0.00 87 1012.4
20260905100003 23 207 1.6 3.2 0.00 0.00 0.00 87 1012.4
20260905095504 23 0 0.0 3.2 0.00 0.00 0.00 86 1012.5
20260905095024 23 207 1.6 3.2 0.00 0.00 0.00 86 1012.5
20260905094524 23 207 1.6 3.2 0.00 0.00 0.00 86 1012.4
20260905094003 24 0 0.0 1.6 0.00 0.00 0.00 84 1012.4
20260905093504 24 207 0.0 4.8 0.00 0.00 0.00 84 1012.3
20260905093003 24 207 1.6 4.8 0.00 0.00 0.00 84 1012.4
20260905092524 24 207 1.6 6.4 0.00 0.00 0.00 84 1012.3
20260905092003 24 224 3.2 6.4 0.00 0.00 0.00 83 1012.3
20260905091504 24 251 1.6 9.7 0.00 0.00 0.00 83 1012.3
20260905091003 24 246 3.2 9.7 0.00 0.00 0.00 83 1012.4
20260905090503 24 237 4.8 8.0 0.00 0.00 0.00 83 1012.4
20260905090003 24 220 3.2 8.0 0.00 0.00 0.00 83 1012.5
20260905085524 24 182 3.2 4.8 0.00 0.00 0.00 84 1012.6
20260905085004 24 182 1.6 4.8 0.00 0.00 0.00 84 1012.6
20260905084503 24 182 1.6 4.8 0.00 0.00 0.00 84 1012.7
20260905084003 24 182 1.6 4.8 0.00 0.00 0.00 84 1012.7
20260905083504 24 182 3.2 3.2 0.00 0.00 0.00 86 1012.8
20260905083004 24 182 0.0 3.2 0.00 0.00 0.00 84 1012.8
20260905082504 24 182 0.0 3.2 0.00 0.00 0.00 84 1012.8
20260905082005 24 0 0.0 3.2 0.00 0.00 0.00 84 1012.9
20260905081524 25 182 1.6 3.2 0.00 0.00 0.00 84 1013.0
20260905081004 24 182 1.6 4.8 0.00 0.00 0.00 86 1012.9
20260905080504 24 182 1.6 4.8 0.00 0.00 0.00 86 1013.0
20260905080003 24 182 1.6 4.8 0.00 0.00 0.00 86 1013.1
20260905075504 24 182 1.6 4.8 0.00 0.00 0.00 86 1013.1
20260905075003 24 0 0.0 0.0 0.00 0.00 0.00 86 1013.3
20260905074503 24 0 0.0 1.6 0.00 0.00 0.00 84 1013.2
20260905074004 24 182 1.6 1.6 0.00 0.00 0.00 84 1013.2
20260905073524 24 0 0.0 3.2 0.00 0.00 0.00 84 1013.2
20260905073004 24 182 0.0 3.2 0.00 0.00 0.00 84 1013.2